map of PDP home
PDP - Airport
Location
City:  Maldonado, Maldonado, Uruguay
Name:Capitán Corbeta C.A. Curbelo International Airport
ICAO:SULS
IATA:PDP

Details
Type:Airport (Aerodrome, Airfield)
Use:Public/Civil, Military, International (customs port of entry)
Latitude:34°51'18"S (-34.855138)
Longitude:55°05'39"W (-55.094277)
Datum:WGS 1984
Elevation:95 ft (29 m)
Variation:11.75°W (WMM2015v2 magnetic declination)
-0.14° annual change
Runways:2
Longest:6998 × 148 ft (2133 × 45 m), paved

Time
Time Zone:UTC-3
Local Time:

Weather
METAR:SULS 041400Z 22004KT 9999 FEW030 22/11 Q1024
TAF:SULS 041145Z 0412/0512 17010KT 9999 FEW023 TX24/0418Z TN13/0509Z
BECMG 0502/0504 08005KT

Related Locations
Nearby:
Farthest:MPK: 12360 mi / 19891 km
Mokpo, KR

Find:

   beyond  
but within

Other Information
Maps:
NOTAMs:
Links:
Sources:

  
  • flag of Uruguay
  • flag of Maldonado
  

Sectional Chart

Flight Planning
at skyvector.com

Satellite Image

Google Maps Satellite view

 

Copyright © 2004-2019 Karl L. Swartz. All rights reserved.
The Great Circle Mapper name and logo are trademarks of the Great Circle Mapper.
All other trademarks mentioned herein belong to their respective owners.
Please see credits for attibutions and further copyright information.

  Follow gcmap on Facebook Follow gcmap on Twitter GCmap on LinkedIn

hCard Microformat

Geo Microformat